User: anonymous   Login
Location: Home
(51.5204°N, 2.5456°W)
Time: 03:43:17
(UTC+00:00)
Language:

STRAND 1 - Orbit

View from above orbital plane
View from above orbital plane
View from above satellite
View from above satellite

Ground track
Ground track

The orbit data is extracted from the following two-line orbital elements,

1 39090U 13009E   21021.30109242  .00000028  00000-0  24953-4 0  9998
2 39090  98.4365 226.8664 0009188   3.7893 356.3360 14.35164626413932
Epoch (UTC): 21 January 2021 07:13:34
Eccentricity: 0.0009188
inclination: 98.4365°
perigee height: 768 km
apogee height: 781 km
right ascension of ascending node: 226.8664°
argument of perigee: 3.7893°
revolutions per day: 14.35164626
mean anomaly at epoch: 356.3360°
orbit number at epoch: 41393

The dashed part of the orbit path shows where the satellite is in the earth's shadow,  

DLR